Location: ??????
(41.3164°N, 22.6615°E)
Time: 01:38:37
(UTC+00:00)

Oscar 19 - Pass Details

Date: 09 July 2022
Orbit: 773 x 790 km, 98.8° (Epoch: 09 August)

Event Time Altitude Azimuth Distance (km) Brightness Sun altitude
Rises 01:07:27 0° 26° (NNE) 3,257 15.5 -17.1°
Reaches altitude 10° 01:10:10 10° 40° (NE) 2,326 14.4 -16.8°
Maximum altitude 01:14:22 25° 95° (E) 1,517 12.5 -16.3°
Drops below altitude 10° 01:18:32 10° 150° (SSE) 2,316 12.9 -15.8°
Enters shadow 01:20:29 - 161° (SSE) 2,973 13.3 -15.6°
